EHI
0 0 0 0 0 0 0 0 0 0 0 0 0 0 0 0 0 0 0 0 0 0 0 0 0 0 0 0 0 0 0 0 0 0 0 0 0 0
0 0 0 0 0 0 0 0 0 0 0 0 0 0 0 0 0 0 0 0 0 0 0 0 0 0 0 0 0 0 0 0 0 0 0 0 0 0
0 0 0 0 0 0 0 0 0 0 0 0 0 0 0 0 0 0 0 0 0 0 0 0 0 0 0 0 0 0 0 0 0 0 0 0 0 0
0 0 0 0 0 0 0 0 0 0 0 0 0 0 0 0 0 0 0 0 0 0 0 0 0 0 0 0 0 0 0 0 0 0 0 0 0 0
0 0 0 0 0 0 0 0 0 0 0 0 0 0 0 0 0 0 0 0 0 0 0 0 0 0 0 0 0 0 0 0 0 0 0 0 0 0
0 0 0 0 0 0 0 0 0 0 0 0 0 0 0 0 0 0 0 0 0 0 0 0 0 0 0 0 0 0 0 0 0 0 0 0 0 0
0 0 0 0 0 0 0 0 0 0 0 0 0 0 0 0 0 0 0 0 0 0 0 0 0 0 0 0 0 0 0 0 0 0 0 0 0 0
0 0 0 0 0 0 0 0 0 0 0 0 0 0 0 0 0 0 0 0 0 0 0 0 0 0 0 0 0 0 0 0 0 0 0 0 0 0
0 0 0 0 0 0 0 0 0 0 0 0 0 0 0 0 0 0 0 0 0 0 0 0 0 0 0 0 0 0 0 0 0 0 0 0 0 0
0 0 0 0 0 0 0 0 0 0 0 0 0 0 0 0 0 0 0 0 0 0 0 0 0 0 0 0 0 0 0 0 0 0 0 0 0 0
0 0 0 0 0 0 0 0 0 0 0 0 0 0 0 0 0 0 0 0 0 0 0 0 0 0 0 0 0 0 0 0 0 0 0 0 0 0
0 0 0 0 0 0 0 0 0 0 0 0 0 0 0 0 0 0 0 0 0 0 0 0 0 0 0 0 0 0 0 0 0 0 0 0 0 0
0 0 0 0 0 0 0 0 0 0 0 0 0 0 0 0 0 0 0 0 0 0 0 0 0 0 0 0 0 0 0 0 0 0 0 0 0 0
0 0 0 0 0 0 0 0 0 0 0 0 0 0 0 0 0 0 0 0 0 0 0 0 0 0 0 0 0 0 0 0 0 0 0 0 0 0
0 0 0 0 0 0 0 0 0 0 0 0 0 0 0 0 0 0 0 0 0 0 0 0 0 0 0 0 0 0 0 0 0 0 0 0 0 0
0 0 0 0 0 0 0 0 0 0 0 0 0 0 0 0 0 0 0 0 0 0 0 0 0 0 0 0 0 0 0 0 0 0 0 0 0 0
0 0 0 0 0 0 0 0 0 0 0 0 0 0 0 0 0 0 0 0 0 0 0 0 0 0 0 0 0 0 0 0 0 0 0 0 0 0
0 0 0 0 0 0 0 0 0 0 0 0 0 0 0 0 0 0 0 0 0 0 0 0 0 0 0 0 0 0 0 0 0 0 0 0 0 0
0 0 0 0 0 0 0 0 0 0 0 0 0 0 0 0 0 0 0 0 0 0 0 0 0 0 0 0 0 0 0 0 0 0 0 0 0 0
0 0 0 0 0 0 0 0 0 0 0 0 0 0 0 0 0 0 0 0 0 0 0 0 0 0 0 0 0 0 0 0 0 0 0 0 0 0
0 0 0 0 0 0 0 0 0 0 0 0 0 0 0 0 0 0 0 0 0 0 0 0 0 0 0 0 0 0 0 0 0 0 0 0 0 0
0 0 0 0 0 0 0 0 0 0 0 0 0 0 0 0 0 0 0 0 0 0 0 0 0 0 0 0 0 0 0 0 0 0 0 0 0 0
0 0 0 0 0 0 0 0 0 0 0 0 0 0 0 0 0 0 0 0 0 0 0 0 0 0 0 0 0 0 0 0 0 0 0 0 0 0
Wind_Speed
2 3 2 1 2 2 2 3 3 1 2 2 1 1 1 0 1 1 1 2 3 4 4 4 4 4 5 5 6 6 5 5 5 5 5 5 5 6
2 2 2 1 2 2 2 2 2 3 2 2 2 1 1 1 1 1 1 1 2 2 3 3 3 4 4 4 5 5 4 4 4 4 4 5 5 5
2 2 2 2 2 2 2 2 2 2 2 1 1 1 0 0 1 1 1 1 1 1 1 1 2 3 3 3 3 3 4 3 3 3 3 3 3 4
3 3 3 2 2 2 2 3 2 3 3 2 1 0 1 1 0 1 1 0 0 1 0 0 1 1 2 2 2 2 2 2 2 2 2 2 2 3
4 4 4 3 3 3 3 3 2 2 2 3 1 1 0 0 1 1 1 1 1 1 1 1 1 0 0 1 1 1 1 1 1 1 1 1 2 2
4 4 4 5 5 5 4 4 3 3 2 2 1 1 1 0 1 0 1 1 1 1 1 1 1 1 1 1 1 2 2 2 1 1 1 1 1 2
3 3 4 5 6 5 4 5 5 4 3 2 2 1 1 1 2 2 1 0 1 1 0 1 1 0 1 2 2 3 3 3 3 2 2 2 1 2
3 3 3 4 6 7 7 7 8 6 6 4 3 3 4 3 2 2 2 1 2 1 1 1 0 1 2 2 3 4 4 4 3 3 3 3 2 2
4 3 3 3 4 3 5 6 7 9 9 6 6 6 5 5 5 3 3 3 3 2 2 1 1 2 2 2 5 5 4 4 4 4 4 3 3 3
4 5 4 4 4 4 3 3 3 5 7 5 6 6 6 5 6 6 5 2 0 1 2 2 1 2 2 2 5 5 5 5 5 5 5 5 4 4
4 4 4 4 6 6 5 4 3 3 5 6 6 6 6 7 7 4 4 3 2 2 2 2 2 1 2 2 3 5 5 5 5 6 6 5 4 4
2 3 5 6 6 6 5 5 5 4 3 3 4 4 4 5 9 7 6 4 2 3 3 3 2 1 2 2 1 2 3 5 5 5 6 5 4 2
2 2 3 6 6 7 6 5 7 4 3 3 2 2 1 2 4 4 5 5 5 4 4 4 3 2 2 2 2 2 2 2 2 4 5 6 5 4
3 3 3 5 6 6 5 5 6 3 2 2 2 2 3 3 4 4 5 5 5 5 5 6 4 4 3 2 3 2 2 3 3 3 3 4 5 6
3 4 4 5 4 4 5 5 3 2 2 2 3 4 3 3 2 2 3 3 3 3 3 5 4 4 4 4 3 2 2 3 3 3 3 3 3 3
2 2 3 3 2 2 2 2 2 3 3 3 3 2 1 1 2 2 3 2 2 2 3 4 5 5 4 4 4 4 3 3 2 3 3 3 3 4
2 1 1 1 1 1 1 1 1 2 2 2 2 2 2 2 2 2 2 2 3 3 2 2 2 3 4 3 4 5 4 4 3 3 3 3 4 5
3 2 2 3 3 3 3 2 2 3 3 3 3 3 3 3 3 2 2 3 4 4 4 2 2 1 1 3 6 6 5 4 3 3 3 4 5 5
2 3 3 4 4 4 3 4 4 4 3 3 4 4 3 3 3 3 3 3 4 4 4 3 4 4 4 5 4 7 6 4 3 3 4 5 5 5
3 4 4 4 4 4 4 4 4 3 3 4 4 4 4 4 4 4 4 5 5 4 4 3 4 6 7 6 4 4 7 6 4 5 4 3 4 4
3 3 4 4 4 4 4 4 4 4 4 4 4 4 4 4 4 4 4 6 5 4 5 6 6 6 3 1 3 4 4 7 6 4 4 3 3 3
3 4 4 4 4 4 4 3 4 4 4 4 4 4 4 4 5 5 5 4 5 5 6 4 3 3 3 5 6 6 5 3 5 8 7 6 4 5
4 4 3 3 3 3 3 3 4 4 4 4 4 4 5 5 5 5 5 5 5 5 5 4 3 3 4 5 6 5 6 4 2 3 4 7 9 9
Wind_Direction
193 185 182 188 174 173 162 157 154 176 277 280 293 317 327 331 359 43 29 35 46 49 50 55 61 60 61 63 65 65 65 67 67 69 66 61 61 58
184 172 183 184 169 162 159 156 155 162 202 249 244 283 310 12 46 57 17 24 38 47 51 59 66 72 76 71 68 68 67 66 66 68 68 62 52 46
192 183 204 178 170 170 156 153 161 153 172 256 268 312 318 6 21 25 13 353 356 10 35 53 69 73 74 70 68 63 62 64 67 61 58 58 51 43
207 194 212 184 186 178 170 178 182 177 162 187 233 253 250 252 335 5 354 354 314 313 330 97 85 85 81 73 66 66 62 61 60 48 37 43 32 25
204 203 210 186 200 193 184 186 188 176 158 161 191 198 248 355 48 10 7 357 313 281 261 243 235 205 165 143 121 117 102 85 47 23 358 1 359 350
209 208 204 197 204 195 190 190 177 164 155 155 165 183 197 235 124 153 352 346 316 325 332 300 268 253 234 216 206 198 203 213 225 245 277 329 333 325
218 217 214 210 208 196 189 184 174 171 166 167 179 172 197 192 208 193 190 302 311 278 11 325 318 314 281 256 239 228 224 227 230 231 234 241 267 296
217 225 228 223 224 215 208 192 182 179 182 182 190 200 216 207 179 175 161 146 272 261 168 275 188 248 267 251 248 237 230 226 226 227 233 234 251 267
209 213 229 223 212 207 216 213 207 207 197 183 188 207 206 200 175 174 184 187 214 215 161 242 227 250 261 260 249 238 232 226 224 232 234 232 244 253
211 209 214 225 209 187 179 190 211 219 217 208 206 214 208 193 185 185 182 171 250 258 168 210 229 246 274 260 255 243 240 238 237 240 240 233 239 245
226 218 215 220 216 191 169 184 219 247 235 221 227 227 216 198 176 145 150 159 218 235 191 193 220 241 267 259 257 252 248 245 245 242 242 234 233 237
231 231 230 225 219 200 186 185 211 235 218 219 230 236 219 202 191 182 178 179 186 224 201 186 196 183 269 261 256 265 258 256 251 249 248 235 225 216
222 235 236 230 223 216 205 202 220 219 195 198 207 213 199 196 201 198 192 187 192 216 193 175 182 185 213 265 282 254 237 249 249 252 252 238 220 203
218 227 229 225 222 221 218 225 223 207 173 179 196 212 213 216 215 207 206 208 213 213 190 177 183 186 189 224 260 267 248 241 235 243 246 241 230 225
216 220 223 219 214 216 219 215 201 178 173 191 215 228 226 220 203 201 210 211 227 232 195 191 192 190 192 210 228 236 253 250 226 229 236 231 225 220
229 227 230 224 218 221 217 213 205 196 195 209 221 233 221 197 207 201 203 198 214 254 232 213 206 193 206 222 221 236 226 235 235 233 240 247 237 225
178 156 162 168 184 209 212 206 200 200 212 214 213 218 213 211 223 208 202 197 210 229 236 230 221 215 219 211 230 238 236 240 239 224 222 252 247 234
170 179 205 207 209 211 213 221 218 216 218 213 213 215 216 217 220 209 201 204 221 234 229 208 183 199 268 259 225 232 233 236 234 219 216 234 256 247
189 209 216 217 219 216 214 216 223 222 213 211 216 217 216 216 215 215 215 222 231 238 233 205 191 194 228 256 252 215 220 228 221 225 228 226 245 252
208 218 225 224 220 220 221 224 226 219 211 215 218 219 214 214 220 222 219 221 230 234 234 220 211 211 221 239 254 248 223 220 218 233 239 236 256 274
227 229 231 228 225 223 224 223 220 218 216 212 215 216 213 214 223 227 227 231 232 231 233 235 231 228 231 228 258 264 251 231 227 225 223 223 248 255
237 234 235 232 229 227 226 222 220 221 217 217 217 217 216 215 223 226 228 231 232 235 243 246 221 201 206 227 246 255 265 269 255 248 238 216 210 224
241 236 231 230 230 224 223 224 223 227 223 221 221 221 218 221 225 226 229 234 238 240 242 241 225 219 227 232 244 256 261 262 263 259 258 254 251 257